STARLINK-32000, 60289

Orbit data source: Space-Track

STARLINK-32000, 60289 is a payload satellite owned by SpaceX/Seattle (US) in LEO that was launched on Sun, 28 Jul 2024 UTC via an FALCON 9 launch vehicle from the Air Force Eastern Test Range (AFETR). Payload-class satellites include a variety of spacecraft equipped with specific instruments for various scientific and technological missions. These include communications satellites like Starlink; space stations such as the ISS; scientific satellites like the Hubble; Earth observation satellites from companies like Planet Labs, Umbra, and HawkEye 360; GPS; miniature CubeSats for education and research; and military/defense satellites.

Loading next visibility...
Identifier
60289, 2024-132M
Orbit
LEO
Last TLE update
11 hours ago
Origin
Manufacturer
SpaceX/Seattle
Mission
Operational spacecraft
Bus & Motor
STARLINK V2M, Unknown motor
Mass
730 kg wet, ~700 kg dry
Launch date (UTC)
2024-07-28 (10 months ago)
Launch vehicle
FALCON 9
Launch site
Air Force Eastern Test Range (AFETR)
Object type
Payload
Rocket body
Debris
Shape & HBR
Unknown
Radar Cross Section
Large (>1 m²)

Expand to show TLE details & history

TLE from 11 hours ago
0 STARLINK-32000
1 60289U 24132M   25133.86272886 -.00001667  00000-0 -44188-4 0  9999
2 60289  53.1621   5.2337 0001301  86.6233 273.4917 15.30191095 45655
Epoch: 2025-05-13T20:42Z
Definitive object data (Epoch: 2025-05-13T20:42:19.773Z)
Latitude
0.00001°
Longitude
-177.20405°
Altitude
476.087 km
Speed
7.629 km/s
True Right ascension
00h 20m 56s
True Declination
0° 00' 00"
Sunlit
Object was in daylight at TLE epoch
Visualization TLE readout
Latitude
-50.89138°
Longitude
114.3249°
Altitude
493.703 km
Speed
7.617 km/s
Apparent Right ascension
00h 12m 29s
Apparent Declination
-63° 52' 37"
Sunlit
Object is in full shadow
Visualization observer readout
Local Sidereal Time
15:49:41
Azimuth
145.679° SSE
Elevation
-50.639°
Doppler factor
1
Orbital elements
Apogee altitude
476.389 km
Perigee altitude
474.606 km
Semi-major axis
6,853.635 km
Eccentricity
0.0001301
Inclination
53.1621°
RAAN
5.2337°
Arg. of periapsis
86.6233°
True anomaly
273.47682°
Mean anomaly
273.4917°
Eccentric anomaly
273.48426°
Mean motion
3.82527 °/min
BSTAR
-0.000044188
Orbital period
94.11 mins
Loading maneuver chart data...
Loading SW <> Apogee altitude chart data...
Loading historical data...
Loading historical data...
Loading historical data...
Loading historical data...
Loading historical data...
Loading historical data...
Loading historical data...

STARLINK-32000 Visibility forecast

Observer location: undefined°, undefined°

Span
Click to sort rows by Start time (UTC) header in descending order
Start Az.
Max El. time (UTC)
Max El. Az.
Max El.
End time (UTC)
End Az.
6 mins2025-05-14 17:14:00.142Z189.861° SSW2025-05-14 17:17:00.142Z132.297° SE24.844°2025-05-14 17:20:00.142Z73.142° E
5 mins2025-05-14 18:53:00.142Z274.31° WNW2025-05-14 18:55:00.142Z333.866° NNW30.378°2025-05-14 18:58:00.142Z34.594° NE
4 mins2025-05-14 23:50:00.142Z344.273° N2025-05-14 23:52:00.142Z36.769° NE25.545°2025-05-14 23:54:00.142Z81.405° E
5 mins2025-05-15 01:28:00.142Z279.738° WNW2025-05-15 01:30:00.142Z215.133° SW31.38°2025-05-15 01:33:00.142Z158.374° S
|